Weather History for Grant County, OR

Change the Weather History Date:

Thursday, November 22, 2012

  Actual Average (KBNO) Record (KBNO)
Temperature  
Mean Temperature 35 °F 31 °F  
Max Temperature 42 °F 41 °F 61 °F (1954)
Min Temperature 28 °F 20 °F -12 °F (1985)
Degree Days  
Heating Degree Days 30 34  
Month to date heating degree days 661  
Since 1 July heating degree days 1711  
Cooling Degree Days 0 0  
Month to date cooling degree days 0  
Year to date cooling degree days 215  
Moisture  
Dew Point 27 °F    
Average Humidity 77    
Maximum Humidity 100    
Minimum Humidity 46    
Precipitation  
Precipitation 0.00 in 0.04 in 1.25 in (1953)
Month to date precipitation 0.82  
Year to date precipitation 9.02  
Sea Level Pressure  
Sea Level Pressure 30.35 in    
Wind  
Wind Speed 5 mph (ENE)    
Max Wind Speed 12 mph    
Max Gust Speed -    
Visibility 10 miles    
Events      
T = Trace of Precipitation, MM = Missing Value Source: NWS Daily Summary

Daily Weather History Graph

Daily Weather History Graph

Search for Another Location

Airport:

Trip Planner

Search our weather history database for the weather conditions in past years. The results will help you decide how hot, cold, wet, or windy it might be!

Date:

Astronomy

Nov. 22, 2012 Rise Set
Actual Time 7:01 AM PST 4:22 PM PST
Civil Twilight 6:29 AM PST 4:54 PM PST
Nautical Twilight 5:53 AM PST 5:29 PM PST
Astronomical Twilight 5:19 AM PST 6:04 PM PST
Moon 1:20 PM PST (11/22) 1:14 AM PST (11/22)
Length of Visible Light 10h 24m
Length of Day
9h 20m
Waxing Gibbous, 72% of the Moon is Illuminated
Nov 22
Waxing Gibbous
Nov 28
Full
Dec 6
Last Quarter
Dec 13
New
Dec 19
First Quarter

Hourly Weather History & Observations

Time (PST) Temp. Windchill Dew Point Humidity Pressure Visibility Wind Dir Wind Speed Gust Speed Precip Events Conditions
12:15 AM 32.0 °F - 30.2 °F 93% 30.28 in 10.0 mi Calm Calm - N/A   Clear
12:35 AM 33.8 °F - 30.2 °F 87% 30.29 in 10.0 mi Calm Calm - N/A   Clear
12:55 AM 32.0 °F 28.7 °F 28.4 °F 87% 30.29 in 10.0 mi NE 3.5 mph - N/A   Clear
1:15 AM 28.4 °F 23.3 °F 26.6 °F 93% 30.29 in 10.0 mi NNE 4.6 mph - N/A   Clear
1:35 AM 32.0 °F - 26.6 °F 80% 30.29 in 10.0 mi Calm Calm - N/A   Clear
1:55 AM 30.2 °F 23.4 °F 26.6 °F 86% 30.30 in 7.0 mi NNE 6.9 mph - N/A   Clear
2:15 AM 30.2 °F 24.3 °F 28.4 °F 93% 30.31 in 10.0 mi NE 5.8 mph - N/A   Clear
2:35 AM 30.2 °F 24.3 °F 28.4 °F 93% 30.31 in 10.0 mi NE 5.8 mph - N/A   Clear
2:55 AM 30.2 °F 24.3 °F 28.4 °F 93% 30.32 in 10.0 mi ENE 5.8 mph - N/A   Clear
3:15 AM 28.4 °F 21.2 °F 28.4 °F 100% 30.31 in 10.0 mi ENE 6.9 mph - N/A   Clear
3:35 AM 28.4 °F 21.2 °F 26.6 °F 93% 30.32 in 10.0 mi ENE 6.9 mph - N/A   Clear
3:55 AM 28.4 °F 21.2 °F 26.6 °F 93% 30.32 in 10.0 mi ENE 6.9 mph - N/A   Clear
4:15 AM 28.4 °F 21.2 °F 26.6 °F 93% 30.32 in 10.0 mi ENE 6.9 mph - N/A   Clear
4:35 AM 28.4 °F 21.2 °F 26.6 °F 93% 30.31 in 10.0 mi ENE 6.9 mph - N/A   Clear
4:55 AM 28.4 °F 21.2 °F 26.6 °F 93% 30.32 in 10.0 mi ENE 6.9 mph - N/A   Clear
5:15 AM 28.4 °F 20.4 °F 26.6 °F 93% 30.34 in 10.0 mi ENE 8.1 mph - N/A   Clear
5:35 AM 28.4 °F 21.2 °F 26.6 °F 93% 30.34 in 10.0 mi ENE 6.9 mph - N/A   Clear
5:55 AM 28.4 °F 21.2 °F 26.6 °F 93% 30.35 in 10.0 mi ENE 6.9 mph - N/A   Clear
6:15 AM 28.4 °F 21.2 °F 26.6 °F 93% 30.35 in 10.0 mi ENE 6.9 mph - N/A   Clear
6:35 AM 28.4 °F 21.2 °F 26.6 °F 93% 30.35 in 10.0 mi ENE 6.9 mph - N/A   Clear
6:55 AM 28.4 °F 22.2 °F 24.8 °F 86% 30.36 in 10.0 mi ENE 5.8 mph - N/A   Clear
7:15 AM 28.4 °F 21.2 °F 24.8 °F 86% 30.37 in 10.0 mi ENE 6.9 mph - N/A   Clear
7:35 AM 28.4 °F 20.4 °F 26.6 °F 93% 30.37 in 10.0 mi ENE 8.1 mph - N/A   Clear
7:55 AM 28.4 °F 20.4 °F 26.6 °F 93% 30.38 in 10.0 mi ENE 8.1 mph - N/A   Clear
8:15 AM 30.2 °F 23.4 °F 26.6 °F 86% 30.38 in 10.0 mi ENE 6.9 mph - N/A   Clear
8:35 AM 30.2 °F 23.4 °F 26.6 °F 86% 30.39 in 10.0 mi ENE 6.9 mph - N/A   Clear
8:55 AM 30.2 °F 22.6 °F 26.6 °F 86% 30.39 in 10.0 mi ENE 8.1 mph - N/A   Clear
9:15 AM 32.0 °F 26.4 °F 26.6 °F 80% 30.38 in 10.0 mi East 5.8 mph - N/A   Clear
9:35 AM 32.0 °F 26.4 °F 26.6 °F 80% 30.38 in 10.0 mi East 5.8 mph - N/A   Clear
9:55 AM 32.0 °F 25.6 °F 26.6 °F 80% 30.39 in 10.0 mi ENE 6.9 mph - N/A   Clear
10:15 AM 33.8 °F 27.7 °F 28.4 °F 81% 30.39 in 10.0 mi ENE 6.9 mph - N/A   Clear
10:35 AM 33.8 °F 27.7 °F 28.4 °F 81% 30.38 in 10.0 mi East 6.9 mph - N/A   Clear
10:55 AM 35.6 °F 30.7 °F 28.4 °F 75% 30.39 in 10.0 mi ENE 5.8 mph - N/A   Clear
11:15 AM 37.4 °F - 28.4 °F 70% 30.38 in 10.0 mi Calm Calm - N/A   Clear
11:35 AM 39.2 °F - 28.4 °F 65% 30.38 in 10.0 mi Calm Calm - N/A   Clear
11:55 AM 41.0 °F 38.0 °F 30.2 °F 65% 30.36 in 10.0 mi ENE 4.6 mph - N/A   Clear
12:15 PM 39.2 °F 35.9 °F 28.4 °F 65% 30.36 in 10.0 mi ENE 4.6 mph - N/A   Clear
12:35 PM 41.0 °F 37.1 °F 28.4 °F 61% 30.36 in 10.0 mi East 5.8 mph - N/A   Clear
12:55 PM 41.0 °F 37.1 °F 26.6 °F 57% 30.36 in 10.0 mi East 5.8 mph - N/A   Clear
1:15 PM 42.8 °F 39.3 °F 26.6 °F 53% 30.36 in 10.0 mi East 5.8 mph - N/A   Clear
1:35 PM 42.8 °F 40.1 °F 26.6 °F 53% 30.36 in 10.0 mi NE 4.6 mph - N/A   Clear
1:55 PM 42.8 °F 38.6 °F 26.6 °F 53% 30.36 in 10.0 mi NE 6.9 mph - N/A   Clear
2:15 PM 42.8 °F - 23.0 °F 46% 30.36 in 10.0 mi Calm Calm - N/A   Clear
2:35 PM 42.8 °F 41.1 °F 24.8 °F 49% 30.35 in 10.0 mi NE 3.5 mph - N/A   Clear
2:55 PM 42.8 °F 40.1 °F 24.8 °F 49% 30.35 in 10.0 mi NE 4.6 mph - N/A   Clear
3:15 PM 42.8 °F 40.1 °F 26.6 °F 53% 30.36 in 10.0 mi East 4.6 mph - N/A   Clear
3:35 PM 42.8 °F 38.0 °F 26.6 °F 53% 30.36 in 10.0 mi ENE 8.1 mph - N/A   Clear
3:55 PM 41.0 °F 39.0 °F 26.6 °F 57% 30.35 in 10.0 mi ESE 3.5 mph - N/A   Clear
4:15 PM 41.0 °F 38.0 °F 28.4 °F 61% 30.34 in 10.0 mi ENE 4.6 mph - N/A   Clear
4:35 PM 41.0 °F - 26.6 °F 57% 30.36 in 10.0 mi Calm Calm - N/A   Clear
4:55 PM 41.0 °F - 26.6 °F 57% 30.37 in 10.0 mi Calm Calm - N/A   Clear
5:15 PM 37.4 °F - 26.6 °F 65% 30.37 in 10.0 mi Calm Calm - N/A   Clear
5:35 PM 39.2 °F - 28.4 °F 65% 30.37 in 10.0 mi Calm Calm - N/A   Clear
5:55 PM 37.4 °F 33.8 °F 28.4 °F 70% 30.38 in 10.0 mi East 4.6 mph - N/A   Clear
6:15 PM 37.4 °F 33.8 °F 28.4 °F 70% 30.38 in 10.0 mi ENE 4.6 mph - N/A   Clear
6:35 PM 37.4 °F - 28.4 °F 70% 30.38 in 10.0 mi Calm Calm - N/A   Clear
6:55 PM 35.6 °F 32.8 °F 28.4 °F 75% 30.38 in 10.0 mi ESE 3.5 mph - N/A   Clear
7:15 PM 37.4 °F 33.8 °F 28.4 °F 70% 30.38 in 10.0 mi ESE 4.6 mph - N/A   Clear
7:35 PM 37.4 °F 31.4 °F 28.4 °F 70% 30.38 in 10.0 mi East 8.1 mph - N/A   Clear
7:55 PM 37.4 °F 32.8 °F 28.4 °F 70% 30.38 in 10.0 mi East 5.8 mph - N/A   Clear
8:15 PM 35.6 °F 29.2 °F 28.4 °F 75% 30.37 in 10.0 mi ENE 8.1 mph - N/A   Clear
8:35 PM 35.6 °F 31.7 °F 28.4 °F 75% 30.38 in 10.0 mi ESE 4.6 mph - N/A   Clear
8:55 PM 35.6 °F 30.7 °F 28.4 °F 75% 30.37 in 10.0 mi East 5.8 mph - N/A   Clear
9:15 PM 33.8 °F 27.0 °F 28.4 °F 81% 30.37 in 10.0 mi East 8.1 mph - N/A   Clear
9:35 PM 35.6 °F 28.0 °F 28.4 °F 75% 30.36 in 10.0 mi ENE 10.4 mph - N/A   Clear
9:55 PM 33.8 °F 28.6 °F 28.4 °F 81% 30.37 in 10.0 mi East 5.8 mph - N/A   Clear
10:15 PM 33.8 °F 27.0 °F 28.4 °F 81% 30.36 in 10.0 mi ESE 8.1 mph - N/A   Clear
10:55 PM 35.6 °F 27.5 °F 28.4 °F 75% 30.36 in 10.0 mi NE 11.5 mph - N/A   Clear
11:15 PM 33.8 °F 27.7 °F 28.4 °F 81% 30.36 in 10.0 mi ENE 6.9 mph - N/A   Clear
11:35 PM 33.8 °F 26.4 °F 28.4 °F 81% 30.35 in 10.0 mi East 9.2 mph - N/A   Clear
11:55 PM 33.8 °F 28.6 °F 28.4 °F 81% 30.35 in 10.0 mi ENE 5.8 mph - N/A   Clear